GFSSW_con_lsi_102.txt.gz
Lid_Strength_Index
-1 -1 -1 -0 -0 -0 -0 -0 -0 -0 -0 -1 -1 -1 -1 -1 -1 1 3 2 1 -1 0 4 4 4 4 5 4 6 10 11 10 10 10 7 8 8 7 8 8 6 6 4 2
-1 -1 -1 -1 0 0 0 -0 -0 -0 -0 -1 -1 -1 -1 -1 1 3 0 -1 -1 -1 4 5 6 5 7 6 7 8 10 10 9 9 9 8 8 8 9 9 9 7 5 4 2
-1 -1 -1 -0 -0 0 0 -0 -0 -1 -1 -1 -1 -1 -1 -1 3 3 -1 -1 -1 0 3 4 5 5 8 7 8 9 10 9 9 8 8 8 9 8 9 10 8 8 6 4 4
-1 -1 -1 -1 -0 0 0 -0 -0 -1 -1 -1 -1 -1 -1 1 8 3 -1 -1 -1 2 4 5 6 7 8 9 7 10 8 9 7 8 8 9 8 9 9 8 7 7 6 5 4
-0 -1 -1 -1 -0 -0 -0 -0 -0 -1 -1 -1 -1 -1 1 5 5 2 -0 -0 2 3 5 6 7 7 9 9 8 10 9 9 8 9 9 8 9 9 9 7 7 7 7 6 5
-0 -1 -1 -1 -1 -0 -0 -0 -0 -1 -1 -1 -1 -1 2 8 2 2 2 3 3 4 5 5 7 6 8 9 9 8 8 9 8 8 8 9 10 10 9 7 8 7 8 7 6
0 0 -0 -1 -1 -0 -0 -0 -1 -1 -1 -1 -1 0 4 5 1 2 2 3 3 3 5 4 5 7 7 9 7 8 11 9 9 8 9 9 10 10 8 8 8 8 8 7 7
0 1 1 1 -1 -1 -0 -1 -1 -1 -1 -1 -1 1 6 2 1 2 2 3 3 3 3 4 4 5 7 7 8 10 11 13 10 9 9 10 13 9 8 9 9 8 9 8 7
0 1 1 1 1 -1 -1 -1 -1 -1 -1 -1 1 3 7 1 3 2 3 4 4 4 4 4 4 7 8 11 12 11 15 13 11 9 9 10 12 9 9 10 9 9 8 7 7
1 1 0 0 1 1 -1 -1 -1 -1 -0 0 2 5 5 6 3 3 3 3 4 5 6 6 7 10 10 12 16 14 13 12 13 10 11 11 12 9 9 8 9 9 8 8 8
1 1 0 0 -0 0 0 1 4 5 3 6 6 6 5 3 2 4 3 4 5 6 10 8 11 13 11 11 10 11 13 13 12 10 11 11 11 10 9 9 10 9 9 9 8
0 0 0 -0 -1 -1 -0 4 4 3 7 4 4 5 4 3 6 5 4 7 7 10 9 10 12 9 9 9 11 11 13 13 11 10 11 12 12 10 9 9 9 8 9 8 8
0 0 1 -0 -0 1 2 3 0 2 8 7 5 6 5 4 6 6 5 7 9 10 10 11 10 8 9 10 11 12 13 13 13 11 11 13 14 12 10 9 8 8 7 7 8
1 1 0 0 2 1 3 1 1 1 11 10 8 6 5 6 7 4 4 6 8 10 10 10 8 10 11 11 10 13 11 11 12 14 17 12 18 14 11 11 9 8 8 8 8
1 1 1 0 2 4 2 1 1 3 19 9 8 4 5 8 7 6 4 6 9 9 9 11 11 11 11 11 9 12 10 11 12 14 14 15 16 15 12 12 11 9 9 8 7
3 2 2 2 2 2 1 1 3 13 19 11 8 9 8 8 8 7 7 6 6 9 9 10 9 10 10 9 9 9 10 11 12 13 18 15 15 16 13 12 10 9 8 8 8
4 3 3 1 4 1 2 5 14 18 9 12 11 9 9 10 9 9 10 10 11 13 13 11 11 10 9 11 10 10 12 17 19 18 19 14 15 14 11 10 10 9 9 8 8
4 4 4 3 1 2 4 10 17 14 13 9 9 10 12 9 10 10 10 12 10 12 13 14 15 11 9 10 12 12 12 16 21 20 18 15 17 14 10 9 9 8 8 8 8
4 4 4 4 1 2 7 15 15 13 10 11 11 13 12 10 10 11 11 11 11 10 13 14 14 9 9 9 9 12 13 11 14 17 18 16 13 11 9 9 8 9 8 9 9
4 5 5 2 2 3 9 13 11 8 9 10 14 12 15 13 12 12 12 10 11 9 9 11 14 11 10 9 9 11 9 15 15 21 21 17 17 15 12 10 9 9 9 9 9
4 7 3 1 1 7 13 12 10 7 8 10 12 13 13 13 12 14 13 11 10 10 10 10 12 14 12 13 12 12 13 12 12 14 19 19 17 11 10 10 10 9 9 9 10
5 10 3 1 9 9 12 10 8 8 7 9 9 10 12 12 13 14 13 11 9 9 12 10 12 15 14 11 10 11 12 11 15 17 15 17 15 10 10 10 10 10 9 10 10
8 8 2 2 12 11 9 9 8 9 9 10 11 9 9 12 14 12 11 8 9 9 11 11 14 17 16 13 12 13 12 11 11 13 17 18 16 11 10 11 11 11 11 11 11
8 11 7 5 6 9 10 11 11 7 8 8 9 9 10 12 10 12 12 9 8 9 9 10 15 15 18 16 13 15 13 12 12 16 15 16 14 12 10 10 12 11 11 11 11
7 11 8 12 10 9 9 9 11 12 8 8 10 10 11 13 13 13 11 10 9 9 9 11 15 14 14 14 15 15 15 14 14 14 17 15 14 11 10 10 9 10 10 10 10
8 10 8 10 8 9 9 11 10 10 9 10 11 10 9 12 11 13 11 11 11 10 11 11 15 14 15 13 14 15 14 13 13 13 13 13 14 9 8 8 9 8 8 10 10
5 4 8 10 11 10 11 10 9 8 8 7 8 9 10 9 8 8 8 9 9 11 12 13 13 15 17 14 14 17 14 13 12 11 11 14 11 9 10 9 9 9 8 8 8

GFSSW_con_lsi_108.txt.gz
Lid_Strength_Index
0 1 0 0 -1 -1 -1 -0 0 0 0 -0 -0 -1 0 -0 -1 1 5 2 2 -1 1 6 6 7 7 8 8 9 13 14 13 13 12 11 11 10 9 9 9 8 6 5 5
0 0 0 -0 -1 -1 -1 -0 0 0 0 -0 -0 -1 -1 -1 3 6 -0 -3 -2 -1 6 7 8 7 9 9 9 11 13 13 13 13 12 10 10 10 10 10 10 7 5 4 5
0 0 0 -0 -1 -1 -0 -0 -0 -0 -0 -0 -1 -1 -1 -0 4 5 -1 -2 -2 1 5 6 7 8 10 10 11 11 13 11 11 11 10 10 11 10 11 12 10 8 6 4 5
0 0 0 -0 -0 -0 -0 -0 -0 -0 -0 -0 -1 -1 -1 2 12 4 -1 -1 -1 4 5 7 8 10 11 11 10 13 11 11 10 10 10 11 10 12 11 10 9 8 4 4 4
0 0 0 0 -0 -0 -1 -0 -0 -0 -0 -1 -1 -1 2 7 7 3 -1 -0 4 5 6 8 9 10 12 11 11 12 12 11 10 10 11 10 12 11 11 9 10 8 5 5 4
1 1 1 0 0 -0 -0 -1 -0 -1 -1 -1 -1 -1 5 10 4 3 3 4 4 5 7 7 9 9 10 11 11 11 11 11 10 10 10 11 12 12 11 11 10 8 6 5 5
0 1 1 1 0 -1 -1 -1 -1 -1 -1 -1 -1 1 6 8 4 3 4 5 5 5 7 6 7 9 10 11 10 10 12 12 11 11 11 11 13 12 11 11 11 10 9 7 5
0 1 1 1 1 0 -1 -1 -1 -1 -1 -1 -1 3 10 3 4 4 4 5 5 5 5 6 6 7 9 9 10 13 13 16 13 11 11 12 15 12 11 11 11 11 12 10 8
1 1 1 1 1 0 -0 -1 -1 -1 -1 -1 3 6 10 2 5 4 5 6 6 6 6 5 6 9 10 13 14 14 17 16 13 11 11 13 14 12 11 12 11 11 11 11 11
0 1 1 1 1 1 -0 -1 -1 -0 -0 0 2 8 8 7 5 5 5 5 7 7 8 8 10 12 14 15 18 16 16 16 16 12 13 14 13 11 11 12 11 11 11 11 10
0 1 1 0 1 1 1 3 6 6 5 8 8 8 7 5 4 6 5 6 7 9 13 11 13 15 13 13 14 14 15 16 15 12 13 13 13 12 11 12 12 12 12 11 10
0 0 0 1 0 0 3 5 6 6 8 4 5 5 5 4 7 6 6 8 9 12 12 13 15 12 12 12 13 14 16 16 14 12 13 14 14 12 12 12 11 10 11 11 11
-0 0 0 1 0 2 4 3 1 2 8 6 5 6 5 5 7 7 7 8 11 12 12 14 13 10 11 13 13 14 15 15 14 14 15 15 16 14 13 12 11 11 10 9 11
-0 0 0 0 3 3 4 2 1 2 12 10 8 6 5 5 8 5 6 8 10 12 12 13 11 12 13 13 13 15 12 13 14 15 18 15 19 16 14 12 12 11 11 11 11
1 1 0 0 3 5 4 2 1 5 19 10 8 4 6 8 8 7 6 7 11 11 12 13 12 12 13 13 12 13 12 13 14 16 17 18 18 18 15 14 12 11 11 11 11
2 2 1 1 2 2 1 1 4 13 23 12 8 10 10 9 9 7 8 7 8 10 11 12 11 11 11 11 11 11 12 13 15 16 19 17 17 19 16 14 14 12 11 11 11
3 3 2 1 4 2 1 5 13 17 11 13 12 10 11 11 10 9 10 11 12 14 14 12 12 11 10 12 11 12 15 19 20 20 20 17 18 17 14 12 12 11 10 11 11
4 4 4 3 2 2 5 10 17 15 13 10 10 10 12 11 11 11 12 13 12 15 15 16 17 13 10 11 12 13 14 17 22 21 20 17 19 16 13 11 11 10 10 10 11
4 5 5 4 2 3 9 15 15 13 10 12 11 13 13 11 11 12 13 13 12 13 15 16 17 13 11 10 10 13 14 13 16 22 20 17 16 13 11 10 11 10 10 10 11
6 6 6 3 2 5 10 13 12 9 9 10 14 12 15 13 13 13 14 12 12 11 12 14 17 13 12 11 11 12 11 15 16 21 22 19 18 16 14 13 11 11 11 11 11
8 10 5 3 3 9 14 12 10 8 8 11 12 13 13 13 12 14 13 12 11 11 11 12 14 15 13 14 14 13 14 13 14 16 20 22 19 14 13 12 12 11 11 11 11
10 13 5 3 10 10 14 11 9 9 7 9 9 11 12 12 13 13 13 12 9 10 12 11 13 17 15 13 11 12 13 13 17 19 18 18 18 12 13 12 11 12 11 11 11
11 11 4 4 12 12 11 10 9 10 9 10 11 10 9 12 14 12 11 9 9 9 11 10 14 19 17 15 14 14 13 12 13 15 18 19 18 12 13 12 12 11 11 11 12
12 13 9 6 8 10 11 11 11 8 9 8 10 9 11 12 10 12 12 9 8 9 8 9 13 15 17 16 14 15 14 13 13 17 17 16 16 14 13 12 11 10 10 11 11
12 14 11 12 11 9 9 10 11 12 8 8 10 10 11 13 13 13 11 10 9 9 10 10 15 13 13 13 14 14 15 14 15 14 16 15 15 13 12 11 10 11 11 11 10
13 14 13 13 11 10 10 11 11 10 10 11 11 10 10 12 11 13 11 11 12 9 11 11 15 14 15 13 14 16 14 13 13 13 13 14 15 11 10 10 11 11 10 11 11
7 7 13 13 13 12 12 10 10 9 9 8 9 10 11 10 8 8 8 8 9 10 11 12 14 15 17 14 15 17 14 13 13 12 12 15 12 10 11 11 12 13 12 12 12

GFSSW_con_lsi_111.txt.gz
Lid_Strength_Index
1 0 1 0 0 0 -0 -0 -0 -0 0 1 1 0 -0 -0 0 2 6 3 2 -1 1 6 6 7 7 8 8 10 13 15 14 13 12 11 11 11 10 9 9 8 6 5 4
1 1 1 1 0 0 0 -0 -0 -0 0 0 1 2 0 0 3 6 1 -2 -2 -1 6 7 8 8 9 9 10 11 13 13 12 13 12 11 11 10 10 11 9 7 5 5 5
0 1 1 1 0 0 0 -0 -0 0 0 0 0 1 1 3 7 7 -1 -0 -1 1 5 7 7 8 11 10 11 12 13 12 12 11 11 10 11 11 11 11 10 8 6 5 6
1 1 1 0 0 0 0 0 0 0 0 -0 -0 -1 -0 3 14 6 -1 -1 -1 4 5 7 8 10 11 11 11 13 12 11 10 11 11 11 11 12 11 10 10 8 5 5 5
1 1 1 0 0 0 -0 -0 -0 -0 -0 -0 -1 -1 2 9 8 4 0 2 5 5 7 8 9 10 12 12 11 13 12 11 11 11 12 11 12 12 12 10 10 9 4 5 4
1 1 1 1 0 0 -0 -0 -0 -0 -0 -0 -1 -1 6 12 4 3 4 4 6 6 7 8 9 9 11 11 12 11 11 12 11 12 11 12 13 12 12 11 11 8 5 5 5
1 1 1 1 1 0 -1 -1 -1 -0 -0 -0 -1 1 7 9 4 3 4 5 5 6 7 6 7 9 10 11 10 11 13 13 12 12 12 11 13 12 12 12 12 11 9 6 5
0 1 1 1 1 1 0 -1 -1 -1 -1 -1 -1 4 10 4 5 4 5 6 5 5 6 6 7 8 10 10 11 13 14 16 14 12 12 13 15 13 11 12 12 12 12 10 8
0 1 1 1 1 1 1 0 -1 -1 -1 -1 4 7 11 2 5 4 5 6 6 6 6 5 7 10 10 13 15 14 18 17 14 12 12 14 15 13 11 13 12 12 12 12 11
0 1 1 1 1 1 1 1 1 -0 -0 0 2 8 8 8 6 5 6 5 7 7 8 8 11 13 14 15 18 16 17 17 16 13 13 14 13 12 11 12 12 12 12 12 11
0 1 0 0 0 0 1 3 8 8 5 9 8 9 8 5 5 6 6 6 7 9 12 11 13 15 13 13 14 14 16 16 15 13 13 14 14 12 12 12 12 12 12 12 11
0 0 0 0 0 0 3 6 8 7 9 4 5 6 5 5 8 7 6 8 10 13 12 13 15 12 12 13 14 15 16 17 14 13 13 14 14 13 13 12 11 11 11 11 12
0 0 0 0 0 2 4 4 3 4 10 8 5 6 6 5 8 8 7 9 11 13 13 14 13 11 12 14 14 16 16 16 15 14 15 15 16 15 13 13 12 11 11 11 11
0 0 0 0 3 3 5 3 2 2 13 12 8 7 6 6 9 6 6 8 11 13 13 13 12 12 14 14 14 16 13 14 14 16 18 16 20 17 15 13 13 12 12 12 12
0 0 0 1 4 5 4 2 1 6 22 12 9 6 6 9 8 8 6 8 12 12 12 14 13 13 13 13 12 14 12 14 15 17 17 19 18 18 16 15 13 12 12 12 12
1 1 0 1 3 3 2 2 5 14 21 13 9 10 10 9 9 8 8 7 8 11 12 13 11 12 12 12 12 11 13 14 15 17 19 18 17 19 17 15 15 13 12 10 11
2 2 1 1 4 2 2 4 14 18 12 13 12 11 11 11 10 9 10 11 13 14 15 13 13 12 11 13 12 13 15 19 20 20 20 18 18 17 15 14 14 13 12 11 11
3 3 4 2 1 1 4 10 17 16 14 10 11 11 13 11 11 11 11 12 11 14 14 15 16 12 11 12 13 14 14 18 22 21 20 17 19 16 13 12 11 11 11 10 11
4 4 4 3 2 2 7 15 16 14 11 12 11 13 13 12 12 12 13 12 11 12 14 15 15 12 11 11 10 13 15 13 17 23 20 18 16 14 12 12 11 11 11 11 11
6 6 6 3 2 5 11 13 12 10 9 10 14 12 15 13 13 13 13 12 12 11 12 14 17 14 13 11 12 13 12 16 17 23 24 20 19 17 14 13 11 11 12 11 11
7 9 5 3 3 9 14 13 11 8 8 11 12 13 13 13 12 14 13 12 11 12 10 12 15 16 14 15 15 15 15 15 15 17 20 22 19 15 14 12 12 12 11 11 11
9 12 5 3 10 13 13 11 9 9 8 9 9 11 12 12 13 13 13 12 10 10 13 12 14 18 16 14 13 13 14 14 17 19 18 18 17 13 12 12 12 12 12 11 11
11 10 4 5 14 13 11 10 9 10 10 10 11 10 9 12 14 12 11 10 9 10 11 11 15 20 19 16 15 15 14 13 13 15 18 19 18 13 13 13 13 12 12 11 12
13 13 10 7 10 11 11 11 11 8 9 9 10 9 10 12 11 13 12 10 9 9 8 9 14 15 17 17 14 15 15 13 13 18 17 17 16 14 13 13 12 12 11 11 12
13 15 13 13 11 11 10 10 12 12 9 8 10 10 11 13 13 13 11 10 9 9 9 10 15 13 13 13 14 15 16 13 14 14 16 15 15 13 12 12 12 12 11 12 12
14 15 14 14 11 10 11 13 11 10 10 11 11 10 10 12 12 13 11 11 12 10 11 10 15 13 15 13 13 15 14 14 14 14 14 15 15 11 11 11 13 11 11 11 12
8 9 13 15 14 12 12 11 11 9 9 9 9 10 11 10 9 9 9 9 10 11 12 13 14 15 17 14 15 17 14 13 13 13 13 15 13 11 12 11 13 13 13 13 12

GFSSW_con_lsi_114.txt.gz
Lid_Strength_Index
1 1 1 0 0 0 -0 -0 -0 0 0 0 1 1 0 -0 0 3 7 4 2 -2 1 7 7 8 8 8 9 11 13 15 14 13 13 12 11 12 10 10 10 9 7 6 3
1 1 1 1 0 0 -0 -0 -0 0 0 1 1 1 0 0 4 7 1 -2 -3 -1 6 7 9 8 10 10 10 11 14 13 12 13 13 11 12 10 10 10 10 8 6 4 3
1 1 1 1 1 0 0 0 0 -0 0 0 1 1 0 2 8 9 -1 -1 -1 1 6 7 7 8 11 11 12 12 13 12 12 12 11 11 12 11 11 11 10 9 7 5 5
1 1 1 1 1 0 0 0 0 0 0 0 0 0 1 5 14 6 -0 -0 -0 5 6 7 8 10 12 11 11 13 12 12 11 11 11 11 11 12 11 10 10 9 6 5 5
1 1 1 1 0 1 0 0 0 0 0 0 -0 -0 4 11 10 5 0 2 6 7 8 9 10 10 12 11 11 13 13 12 11 12 13 11 12 12 12 10 11 10 5 5 4
1 2 1 1 1 1 1 0 -0 -0 0 0 -0 -0 7 14 7 5 5 5 6 8 9 8 9 9 11 11 12 11 12 13 12 12 12 13 14 13 12 12 12 9 6 5 5
1 2 2 1 1 1 0 0 0 -0 -0 -0 -0 2 8 10 5 5 6 7 6 7 9 8 8 10 10 11 10 12 13 13 13 12 12 12 13 13 12 13 12 11 9 6 6
1 1 1 1 1 1 1 0 -0 -0 -0 -1 -1 5 11 6 6 5 6 7 6 7 7 8 7 8 10 11 12 13 14 16 14 12 13 14 16 13 12 13 12 12 13 10 7
1 1 1 1 1 1 1 1 0 -0 -1 -1 5 8 11 3 6 5 6 7 7 7 7 6 8 10 11 13 15 15 18 17 14 12 13 14 15 13 12 12 13 13 13 12 12
0 1 0 1 1 1 1 1 1 1 0 1 3 10 9 9 6 6 7 6 7 8 8 9 11 13 14 14 18 16 17 17 16 14 13 15 14 12 12 13 12 13 12 12 11
0 0 0 0 0 0 1 4 8 9 8 10 9 10 9 6 5 7 6 7 9 10 12 11 13 15 14 13 14 14 16 17 16 14 14 15 14 12 12 13 12 12 12 11 11
0 0 0 0 0 0 4 8 9 9 11 6 6 7 6 6 8 8 6 9 11 13 12 13 15 12 12 13 14 15 16 17 15 13 14 15 14 13 13 13 12 11 11 11 11
0 0 0 0 0 2 6 5 3 4 11 10 6 7 7 6 9 8 7 9 12 13 14 14 13 11 12 14 14 16 16 17 15 15 15 16 17 15 14 14 13 12 11 11 11
0 1 0 0 3 4 6 3 2 3 14 13 10 9 6 6 9 7 7 9 12 13 14 14 13 13 14 14 14 16 14 14 15 16 18 16 20 17 15 14 14 12 12 12 13
0 1 0 1 4 5 4 2 2 7 21 12 10 7 7 9 9 9 7 9 12 13 13 15 13 13 14 13 13 14 13 14 15 17 18 19 19 18 16 15 13 12 13 13 12
0 1 1 2 4 3 2 2 5 14 22 14 10 12 11 11 10 9 8 8 9 12 13 14 12 13 13 13 12 12 13 14 16 17 19 18 18 19 17 15 15 14 13 12 11
0 1 1 2 5 2 3 6 14 18 12 13 13 12 12 13 11 11 11 11 13 15 16 14 13 12 12 13 12 14 15 19 20 20 20 18 19 18 15 14 14 13 13 12 11
2 1 2 2 2 3 5 10 17 17 15 11 12 12 14 12 12 12 12 12 12 14 15 16 17 13 12 13 14 15 15 18 22 21 20 17 19 17 14 13 12 11 11 11 11
4 4 4 3 2 3 8 15 15 16 12 12 12 15 15 13 13 13 14 14 11 12 14 16 16 12 12 11 11 14 16 14 18 24 21 19 17 14 13 13 12 12 12 12 12
6 6 5 3 2 5 10 14 13 10 10 10 14 13 15 14 14 14 14 13 13 11 12 13 16 13 12 11 11 13 12 16 17 23 23 20 19 17 15 14 13 12 12 12 11
7 8 5 3 3 8 14 13 12 9 8 11 12 13 13 13 13 14 14 13 11 11 10 12 14 15 13 14 14 14 15 14 14 16 19 22 19 16 15 13 13 13 12 11 11
8 11 6 3 12 14 14 11 9 9 8 9 10 11 12 12 13 13 14 13 11 11 12 12 13 16 15 13 12 13 14 14 18 20 19 19 18 14 14 13 13 12 11 11 11
10 10 5 6 15 14 11 10 9 10 10 10 11 10 10 12 14 12 12 10 10 11 12 11 14 19 17 16 15 15 14 14 15 16 19 21 18 14 14 14 13 13 12 11 12
12 13 10 7 9 11 12 11 11 8 9 9 10 9 11 12 11 13 12 10 9 9 8 9 14 15 17 17 14 15 15 14 14 17 17 17 18 16 14 13 12 12 12 12 12
12 14 13 13 12 11 10 10 12 12 9 8 10 10 11 14 13 13 11 11 9 8 9 10 16 15 14 14 14 16 16 14 14 14 16 15 16 15 13 12 12 11 12 12 12
13 14 13 13 11 11 10 12 12 11 10 11 11 10 10 12 12 13 11 11 12 10 10 10 14 13 14 13 13 14 13 14 15 14 14 14 15 13 11 12 12 11 11 12 12
9 10 13 14 13 12 13 12 11 9 9 9 9 10 11 10 9 9 9 9 10 11 12 12 14 15 17 14 14 17 14 13 14 13 13 15 13 11 12 12 12 12 12 12 13

GFSSW_con_lsi_117.txt.gz
Lid_Strength_Index
1 0 0 0 0 0 0 -0 -1 -0 0 -0 1 0 1 1 2 5 11 7 4 -1 2 6 7 7 7 8 8 8 12 14 13 12 11 11 10 9 8 9 8 6 6 4 2
1 1 1 1 0 0 0 -0 -1 -0 1 1 1 1 0 1 6 8 3 -1 -1 -1 7 7 8 8 9 9 9 10 13 12 11 11 11 11 10 9 9 9 9 7 5 3 2
1 1 1 1 0 0 0 -0 -0 -0 0 1 1 1 1 2 8 9 -0 -1 -1 1 6 7 7 8 10 10 10 11 12 11 11 11 10 10 10 10 10 10 9 8 6 4 3
1 1 1 1 1 1 -0 0 -0 0 0 1 1 0 0 5 14 6 -1 -0 -0 5 7 8 9 10 11 11 10 12 11 11 10 10 10 10 10 11 10 9 9 8 5 4 4
1 1 2 2 1 1 0 0 0 0 0 0 1 0 4 11 10 5 0 1 6 6 7 9 10 10 11 11 11 12 12 11 11 11 11 10 11 11 10 9 9 8 5 5 4
2 2 2 2 1 1 1 0 0 -0 0 0 -0 0 8 13 7 4 5 6 6 7 8 8 9 9 11 11 11 11 12 12 11 11 11 12 12 12 11 10 11 8 6 4 4
1 1 2 2 1 0 0 1 0 0 0 -0 -0 3 9 11 6 6 6 7 7 8 9 8 9 9 10 11 10 11 12 12 12 12 12 11 13 12 11 11 11 10 9 6 4
1 2 2 1 1 1 0 1 -0 0 -0 -0 -1 6 11 7 6 7 8 8 7 7 8 8 8 9 10 11 11 13 13 14 13 11 12 12 14 12 11 12 11 11 11 11 7
1 2 2 1 1 1 1 0 0 0 -0 -1 6 10 12 4 7 7 8 9 9 9 7 7 9 11 11 13 14 14 16 15 14 12 12 13 14 12 11 12 11 11 12 11 11
1 1 1 1 1 1 1 1 1 1 1 1 4 10 10 10 7 7 8 7 9 9 9 10 12 14 15 15 17 16 16 16 15 13 13 14 14 12 12 12 11 11 11 11 11
1 1 1 1 1 1 2 4 8 9 8 10 10 11 10 7 6 8 7 8 9 10 13 12 14 17 15 14 14 14 16 16 16 13 14 14 14 12 12 12 12 12 11 11 10
0 0 0 1 0 0 3 8 9 9 11 7 7 8 7 6 9 8 7 10 11 13 13 14 16 13 13 14 14 15 16 16 14 13 13 14 14 12 12 12 11 11 11 11 10
0 0 0 0 0 2 6 6 3 5 12 11 8 8 7 7 9 9 8 10 13 14 14 15 14 12 12 14 15 16 16 16 15 15 15 16 16 15 13 13 12 12 11 11 11
0 0 0 0 3 3 5 3 2 5 15 13 11 10 8 7 10 7 8 10 13 14 14 14 13 13 14 15 14 16 14 14 15 16 18 16 19 16 14 14 13 12 12 12 12
0 0 0 1 4 5 5 3 2 8 20 13 11 8 8 11 11 9 8 10 13 13 13 15 14 14 15 14 13 14 13 14 14 16 17 17 18 17 16 15 13 12 12 11 11
0 0 1 3 4 4 2 3 6 14 22 15 11 12 12 12 12 10 9 9 11 13 13 15 13 13 13 13 13 12 13 14 16 16 19 18 17 19 16 14 14 13 13 12 11
0 1 1 2 6 2 3 6 15 18 14 15 14 13 13 14 13 12 12 13 14 17 17 15 14 13 12 14 12 14 15 18 19 20 20 18 18 17 15 14 14 13 12 11 10
1 1 2 2 2 3 5 11 17 17 16 12 12 13 15 13 14 13 13 13 12 15 16 17 18 14 12 13 14 15 15 18 21 21 19 17 19 16 14 13 12 11 11 10 11
2 2 2 3 3 4 8 15 15 16 12 12 13 15 15 13 14 14 14 14 12 13 15 16 16 13 12 11 11 14 16 14 18 23 20 18 17 14 13 13 12 11 11 11 11
5 5 5 2 3 5 10 13 13 12 10 11 15 14 16 15 14 14 15 14 14 13 13 13 16 13 12 11 11 13 12 16 17 23 23 20 19 17 15 13 12 11 11 11 11
6 8 5 2 4 8 14 13 12 9 9 11 13 14 14 14 14 14 14 13 12 13 12 12 14 15 12 13 14 14 15 15 15 17 20 23 19 16 14 14 12 11 11 11 11
8 12 6 3 11 11 13 11 9 10 9 10 10 11 13 12 13 14 14 13 11 11 13 12 14 16 15 13 12 12 13 14 16 19 18 18 17 13 14 12 11 11 11 11 11
11 11 5 6 15 14 12 11 9 10 10 10 11 10 10 12 14 13 13 10 11 11 12 12 15 20 17 15 14 15 15 14 14 15 17 19 17 14 13 12 12 11 11 11 12
11 13 10 9 11 12 12 11 11 8 9 9 10 9 11 12 11 12 12 10 9 10 9 9 14 15 17 17 14 14 14 14 13 17 16 17 16 15 14 13 12 11 11 11 12
12 13 13 14 13 12 11 11 12 12 9 8 10 10 11 14 13 13 11 10 9 8 9 11 15 15 15 14 14 15 14 13 14 13 16 15 16 15 13 12 11 11 11 12 12
13 14 12 13 10 11 12 13 12 11 10 11 12 10 10 12 12 13 11 11 12 10 10 10 14 15 16 14 13 14 14 14 13 13 14 14 15 13 11 12 12 11 11 12 12
10 10 12 14 12 12 13 12 12 10 9 9 10 10 11 10 9 9 8 8 9 11 12 12 14 15 17 14 15 17 14 14 14 14 14 16 13 12 13 12 12 11 12 12 12

GFSSW_con_lsi_123.txt.gz
Lid_Strength_Index
-0 1 1 1 1 1 0 -0 -1 0 0 1 1 2 2 3 3 5 9 7 5 2 4 8 5 4 4 5 4 4 8 9 8 8 7 5 6 5 5 5 4 3 4 3 1
0 1 1 1 1 1 0 -0 -0 -0 -0 0 1 1 3 3 7 8 4 2 2 1 7 8 8 5 5 6 5 6 7 7 6 5 6 6 6 6 6 6 5 4 3 2 2
0 0 1 1 1 0 0 -0 -1 -0 0 0 0 1 1 3 9 9 2 2 2 2 6 7 7 5 7 6 6 6 8 7 7 6 5 6 6 5 6 7 5 5 4 3 3
1 1 1 1 0 -0 0 -0 -0 -0 0 0 1 0 1 4 12 5 1 1 1 3 6 8 7 7 7 9 7 8 7 7 7 7 6 6 5 6 5 5 4 4 3 3 3
1 1 1 1 1 -0 0 0 -0 0 0 0 0 0 3 7 8 4 1 2 3 7 8 8 7 7 8 7 7 8 8 8 7 7 6 6 6 6 6 4 5 4 3 3 3
1 1 1 1 1 -0 -0 -0 -0 0 1 1 0 0 5 10 5 3 3 5 6 6 7 6 6 5 7 7 8 7 7 8 8 8 7 7 7 7 5 4 5 5 4 3 3
1 2 1 1 1 -0 0 -0 -0 -0 0 0 0 2 7 8 3 3 4 4 5 5 7 5 5 6 6 7 7 8 9 8 8 8 9 7 9 9 5 6 6 6 5 4 3
1 2 2 1 1 1 -0 -1 -1 -0 -0 -1 -0 3 9 5 3 4 4 5 4 4 5 5 5 6 6 6 8 9 8 11 8 8 8 8 10 7 6 7 7 6 6 5 4
1 1 1 2 2 0 -0 0 1 1 -0 -1 2 5 9 3 6 4 4 6 5 5 5 5 4 6 7 8 10 9 12 11 11 8 8 9 10 7 7 7 7 6 6 6 6
1 1 1 2 1 1 0 1 -0 0 1 1 3 7 8 8 5 5 4 4 6 6 6 6 7 9 9 10 13 12 12 11 11 10 10 10 10 8 7 7 7 6 6 6 6
1 1 1 1 1 1 2 3 6 7 6 9 8 8 8 5 4 6 5 5 5 7 10 8 10 12 10 9 9 9 10 11 10 10 10 10 10 9 7 7 7 7 6 6 5
1 1 1 1 1 1 3 7 7 7 11 7 7 7 5 4 8 6 5 8 8 10 9 10 12 9 8 9 10 11 11 11 11 10 10 10 10 9 8 8 7 7 6 6 5
0 1 1 1 1 2 4 7 3 4 10 9 7 8 6 5 7 7 5 6 8 10 10 11 10 8 10 10 11 11 12 12 12 11 10 11 12 11 9 8 7 7 6 6 6
0 1 1 1 3 3 5 4 2 2 13 12 10 7 6 5 8 5 5 6 8 10 9 10 9 10 10 11 11 13 10 10 12 13 14 11 15 11 10 10 9 9 8 7 6
0 1 1 1 3 5 4 3 2 4 18 11 11 6 6 9 8 8 5 7 9 9 9 11 11 11 11 11 9 11 9 10 11 12 13 13 14 12 10 11 10 8 8 7 7
1 1 1 2 2 3 3 2 3 12 18 12 10 11 10 9 10 8 8 6 7 9 9 9 9 9 10 10 9 9 10 10 11 12 16 13 14 13 11 11 9 8 8 8 7
0 1 1 2 4 2 2 4 13 17 11 13 13 11 11 12 11 9 10 12 12 13 13 11 11 9 9 10 9 9 11 14 15 16 17 13 14 13 10 9 9 9 8 8 7
0 1 2 2 2 2 3 9 18 14 13 10 11 11 13 11 12 11 10 12 10 11 12 14 15 11 9 9 11 10 10 13 18 16 15 14 16 13 9 8 9 9 8 6 6
1 1 2 2 2 3 7 15 15 12 11 11 11 13 13 12 12 12 12 12 11 10 13 13 13 9 9 9 9 11 12 9 13 16 15 13 12 10 9 9 9 9 8 7 6
2 3 4 2 2 4 10 13 12 9 9 10 13 12 14 13 13 13 13 11 11 10 9 10 13 10 10 9 9 9 8 13 12 18 17 15 13 13 11 10 8 9 8 7 6
5 7 3 2 3 7 14 12 10 8 7 10 11 12 12 12 12 12 12 10 9 10 10 10 12 13 11 12 12 11 11 11 11 12 15 16 14 9 9 8 8 8 7 6 6
7 12 5 3 10 10 13 10 8 9 7 8 8 9 11 11 12 12 12 10 9 9 12 10 11 14 14 10 9 9 11 10 13 15 13 13 13 9 9 8 8 7 6 6 6
10 10 6 5 14 14 10 10 8 9 9 9 9 8 8 10 12 10 10 8 8 9 11 10 12 16 15 13 11 13 11 10 10 10 15 15 14 9 9 9 8 7 7 7 7
12 13 11 8 11 11 12 11 11 7 8 8 9 8 9 10 9 11 10 9 8 8 8 9 12 14 16 14 12 14 13 12 12 14 14 12 13 10 9 8 8 7 6 6 7
13 13 13 14 14 10 10 11 12 12 8 8 9 9 10 12 11 11 9 10 9 8 9 9 14 12 12 10 10 12 13 12 13 12 13 13 12 11 9 8 7 6 6 6 7
13 13 12 11 10 11 10 12 12 10 10 11 10 9 9 10 10 11 10 10 10 9 10 9 14 12 14 12 11 13 11 11 12 12 12 12 12 9 7 6 7 6 6 6 7
10 10 12 12 12 12 12 11 11 9 8 8 8 9 10 8 7 7 7 7 8 10 10 12 14 14 15 12 13 15 14 12 12 11 11 13 11 8 8 8 7 6 6 6 6

GFSSW_con_lsi_126.txt.gz
Lid_Strength_Index
-0 0 0 1 1 1 1 1 0 0 0 1 1 1 2 2 3 5 10 6 6 3 3 7 8 6 4 5 4 5 9 11 10 9 9 7 8 7 7 7 7 6 5 4 2
-1 -1 -0 0 0 1 1 1 0 -0 0 1 1 1 2 2 6 8 5 2 2 1 7 9 10 9 7 6 6 8 10 9 7 8 8 7 8 8 9 8 8 6 4 3 3
0 -1 -1 -0 -0 0 0 0 0 -0 -0 0 1 1 1 3 8 9 1 2 2 1 6 8 8 9 7 7 7 8 9 9 8 7 6 7 8 7 9 9 8 7 5 4 4
1 0 -0 -1 -0 -0 0 -0 0 0 0 1 1 1 1 4 13 6 2 1 1 3 6 8 9 10 8 8 7 10 8 8 7 8 7 7 7 8 8 9 6 6 3 4 4
1 1 0 0 -0 -0 -0 -0 -0 0 1 0 1 1 3 8 7 4 2 1 2 5 8 9 10 10 10 8 9 9 9 8 8 8 8 7 8 8 8 7 7 5 4 4 4
1 1 1 0 0 -0 -0 0 -0 -0 0 0 1 1 5 10 4 2 4 4 6 7 9 9 9 9 8 9 9 9 9 9 9 9 9 8 9 9 8 7 7 7 5 4 4
-0 1 1 1 0 1 1 1 1 0 0 0 -0 2 7 7 4 3 4 5 5 7 8 9 8 9 9 8 7 9 11 10 10 9 10 9 11 11 9 7 7 8 8 6 4
0 1 1 1 1 1 1 1 1 -0 0 -0 -1 3 8 4 3 4 4 6 6 7 7 8 7 6 8 8 8 12 12 13 10 9 10 10 13 9 8 9 9 9 9 8 6
-0 1 1 1 1 2 1 0 -0 -0 0 -0 2 5 9 4 5 5 5 7 7 7 7 6 6 8 8 11 12 11 15 13 12 9 10 11 13 10 9 9 10 10 9 8 7
0 0 0 1 1 1 1 0 0 1 1 2 5 8 8 8 5 5 5 5 6 6 7 8 9 11 11 12 16 14 14 13 13 11 11 13 12 11 10 10 10 10 10 9 9
-0 -0 0 1 1 1 2 3 6 7 6 9 9 9 8 5 4 6 5 6 6 7 11 9 12 14 12 11 10 12 12 13 12 11 12 12 12 11 10 10 10 10 9 9 8
-0 0 0 1 0 1 3 7 6 6 9 6 6 7 6 5 8 7 6 8 9 12 10 11 13 10 9 10 10 12 13 14 13 11 12 13 12 10 10 10 10 9 9 9 8
-0 0 0 1 0 2 5 6 3 5 10 8 5 7 7 5 8 8 7 8 10 11 11 13 11 9 10 11 12 13 14 14 13 12 13 14 15 13 11 10 10 9 9 8 8
-0 0 1 1 3 4 6 3 2 3 13 12 10 8 6 5 8 5 6 8 10 11 11 12 10 11 11 11 11 14 11 12 13 15 17 13 19 15 13 12 11 11 10 9 9
0 0 0 1 4 5 4 2 2 6 20 11 10 5 6 8 8 8 7 9 11 11 11 13 12 12 12 11 10 13 11 12 13 15 16 16 18 16 14 13 12 11 11 10 10
0 0 0 2 3 3 2 2 4 14 20 13 10 11 11 10 9 8 9 8 8 11 11 12 11 11 11 10 10 10 12 12 13 15 19 16 17 17 15 13 13 13 12 10 10
0 0 1 1 5 3 2 5 14 19 11 14 14 12 12 13 11 10 11 12 14 15 15 13 13 12 10 12 11 11 13 18 19 20 20 16 17 16 13 12 13 12 12 11 9
1 1 1 1 2 2 5 11 18 16 14 11 12 12 14 12 12 12 12 13 11 12 14 15 17 13 11 12 13 12 13 17 21 20 20 17 20 16 12 12 11 11 11 10 10
3 2 2 2 2 3 9 16 17 14 12 12 12 14 14 13 13 13 13 13 12 11 14 15 15 11 10 10 10 13 15 12 16 20 20 17 16 13 11 12 12 12 11 10 9
6 3 4 2 2 5 11 15 13 10 11 11 15 13 16 14 14 14 14 12 12 11 11 12 15 12 11 10 10 11 10 15 15 21 22 19 18 17 14 12 11 12 11 10 9
7 7 3 2 3 8 14 14 12 9 9 11 12 13 13 14 14 15 14 12 11 12 10 11 13 14 13 14 13 13 13 13 13 15 19 21 18 14 13 12 12 11 10 10 9
7 13 3 3 11 11 13 11 9 9 8 10 9 10 12 12 14 14 14 12 10 10 13 12 13 18 16 12 10 11 12 12 15 18 17 17 17 12 12 11 11 11 9 9 8
11 11 6 5 14 14 11 11 10 10 10 10 11 10 10 12 14 12 12 10 10 10 12 11 14 20 18 15 14 15 14 12 12 14 17 19 17 12 12 13 11 10 10 9 9
12 14 12 9 9 11 12 12 12 9 9 8 9 8 10 12 11 13 12 10 9 10 9 10 13 15 18 17 14 16 15 13 13 16 16 17 15 14 12 12 11 10 9 9 9
14 14 13 15 14 11 10 11 12 12 9 8 10 10 10 12 12 12 11 10 10 9 10 11 17 15 14 14 14 15 15 14 14 14 16 15 15 13 13 12 11 10 9 9 9
12 13 12 13 11 11 11 12 12 11 10 11 11 9 9 11 11 13 11 11 12 11 11 11 18 15 17 14 14 17 13 14 13 13 13 13 14 10 11 12 11 10 9 9 9
11 11 12 13 12 12 12 11 11 10 9 8 9 9 10 9 8 8 8 8 9 11 12 13 16 19 20 14 15 17 14 14 13 12 13 15 12 11 12 11 11 10 9 9 8

GFSSW_con_lsi_132.txt.gz
Lid_Strength_Index
-1 -1 -1 -0 -0 -1 -1 -1 -1 -1 -1 -0 0 1 2 2 2 6 9 6 6 1 2 8 8 9 10 11 8 9 12 14 12 12 11 10 10 10 9 8 7 6 5 4 3
-0 -1 -1 -1 -0 -0 -1 -1 -1 -1 -0 -0 0 1 2 2 6 8 5 1 2 1 8 9 10 10 12 12 11 11 13 12 10 11 10 10 10 9 9 9 8 8 5 3 3
0 -0 -1 -1 -1 -1 -1 -1 -1 -0 -0 0 1 1 2 3 8 9 2 2 1 1 7 8 8 10 11 13 13 10 12 11 10 10 9 9 10 10 10 11 8 8 6 4 4
1 -0 -0 -1 -1 -1 -1 -1 -1 -0 0 1 1 1 2 5 12 8 2 1 1 5 8 9 10 11 12 13 13 13 9 11 9 9 9 10 9 11 10 10 7 5 4 4 4
1 1 0 0 -1 -1 -1 -1 -1 -0 0 1 1 1 5 9 10 5 1 0 3 7 9 10 11 11 12 12 13 13 11 11 10 10 10 9 10 10 10 9 6 4 4 5 4
1 1 0 1 1 -1 -1 -1 -1 -0 0 1 1 1 7 13 7 4 3 4 6 7 9 9 10 9 11 11 13 13 10 11 11 11 10 10 11 10 10 9 5 5 5 5 4
1 1 1 1 1 1 -0 -1 -1 -0 -0 -0 1 5 9 10 6 4 3 5 5 7 8 9 9 11 11 12 11 13 14 12 12 11 11 11 12 11 10 8 6 6 5 5 4
1 1 1 0 1 1 1 -0 -1 -0 -1 -1 -0 5 10 6 6 5 6 7 7 7 8 8 9 10 11 12 13 14 16 15 11 11 11 11 13 11 10 10 8 6 6 5 5
1 1 0 0 0 1 1 1 0 -1 -1 -1 4 8 11 4 7 6 6 8 8 9 8 8 9 11 12 14 16 16 19 18 13 11 11 12 13 12 11 10 10 9 8 6 6
1 1 0 0 0 1 1 1 1 -0 1 2 4 10 9 10 7 6 7 7 9 10 11 11 12 14 16 17 19 18 18 17 14 12 13 14 13 11 12 12 11 12 12 11 10
2 1 0 0 0 -0 1 3 6 8 6 11 11 12 10 8 7 8 7 8 9 11 14 13 16 18 16 15 15 15 16 16 13 12 13 13 13 12 12 13 13 13 13 12 11
2 1 0 -0 -0 -0 3 7 8 8 11 9 9 10 8 7 10 9 7 10 12 14 13 14 17 14 13 13 14 16 17 17 13 12 13 15 14 12 13 12 12 12 12 12 11
3 1 -0 -0 -0 1 5 7 5 7 11 10 9 10 9 8 10 10 8 10 12 14 14 15 14 12 13 15 16 16 17 16 14 13 14 15 15 15 13 13 12 12 10 10 10
2 2 -0 -0 2 3 6 4 4 7 14 13 11 10 8 7 10 7 8 9 12 13 14 14 13 13 15 15 15 16 13 14 14 16 18 17 21 17 15 14 13 11 10 10 11
2 2 -0 0 3 5 5 3 5 7 21 11 11 7 8 10 10 10 8 9 12 13 13 15 15 15 15 14 13 14 12 13 14 16 17 18 19 17 15 14 13 12 11 10 10
2 1 0 1 2 2 2 3 6 14 20 14 11 12 12 11 10 9 9 9 10 12 13 13 12 12 13 12 12 12 13 14 15 16 20 18 19 19 16 14 13 12 12 11 12
2 1 1 0 4 2 2 6 14 18 12 15 15 12 13 14 13 11 12 13 14 16 16 15 15 13 12 13 13 14 15 19 20 20 21 17 19 16 14 13 13 12 13 13 13
3 1 2 1 1 1 4 11 18 16 15 12 13 12 14 13 13 12 12 14 13 14 16 17 19 15 13 13 14 14 14 18 22 21 20 17 20 16 13 12 12 13 13 12 11
3 3 4 1 1 2 8 15 16 15 12 13 13 15 15 13 13 14 14 15 13 13 16 17 17 13 13 12 11 14 16 13 18 23 20 19 17 14 13 13 14 13 13 12 12
5 5 5 1 2 5 11 14 14 11 10 11 15 14 17 15 15 15 15 13 13 12 11 13 16 13 13 12 12 14 12 16 18 23 23 20 19 18 15 14 13 14 13 12 12
6 9 6 4 3 9 14 13 12 10 10 12 14 14 15 15 14 15 15 13 12 12 11 12 13 15 13 14 15 15 15 15 15 18 21 23 20 16 14 13 14 13 14 13 11
9 13 6 2 10 11 13 11 9 11 9 10 11 12 13 13 14 14 15 13 10 10 13 12 13 16 15 14 12 12 14 13 17 19 19 19 19 14 14 13 13 13 13 13 12
10 11 7 6 14 14 11 11 10 11 10 10 12 11 11 12 14 13 13 11 10 11 12 11 16 20 17 14 14 15 15 13 14 16 20 21 19 15 14 15 14 13 13 13 13
10 14 13 12 12 12 12 12 12 9 10 9 10 10 12 12 12 13 13 11 10 11 9 9 14 16 18 17 15 17 15 14 13 16 18 18 17 16 15 15 13 13 12 12 12
11 13 12 15 13 12 11 11 13 13 10 9 11 11 13 14 13 14 12 12 11 9 10 11 19 16 16 15 14 15 15 13 15 15 17 16 17 15 15 14 14 13 12 12 12
11 13 13 12 12 12 12 12 12 12 11 12 12 11 12 14 13 15 13 13 13 12 12 12 16 15 18 15 15 17 15 14 14 14 15 15 16 13 13 14 14 13 12 11 11
9 11 13 10 11 13 12 12 12 11 11 9 10 11 11 12 11 10 9 9 11 12 13 13 16 17 19 16 16 18 16 15 15 14 14 16 13 13 14 13 13 12 12 11 11